Погода в Чернышевском

Россия / Республика Саха (Якутия)     63°01′07″N   112°28′07″E
темп.,
°C
ветер,
м/с
пор.,
м/с
влажн.,
%
обл.,
%
осадки,
мм/ч
давл.,
гПа
погр.,
м
27 февраля, сб
сб2700:00−29в3797100 0.1 1025262
03:00−30в2399100 0.2 1024112
06:00−31в1199100 0.1 102519
09:00−33ю01100100 0.1 102619
12:00−27юз1396100 0.0 1026263
15:00−25зюз359499 0.0 1025386
18:00−27зюз229799 0.0 102619
21:00−30юз2210096 0.0 102719
28 февраля, вс
вс2800:00−31зюз2210098 0.0 102849
03:00−33зюз2210093 0.1 102824
06:00−34зюз2310094 0.0 102947
09:00−35зюз2410083 0.0 103070
12:00−30зюз379690 0.0 1031319
15:00−27зюз379395 0.0 1030483
18:00−28юз2695100 0.0 1031150
21:00−32юз2210099 0.0 103219
1 марта, пн
пн100:00−33юз1210096 0.0 103219
03:00−35юз1110090 0.0 103219
06:00−36юз1210087 0.0 103219
09:00−38юз1110087 0.0 103219
12:00−31зюз139346 0.0 1031254
15:00−28зюз238969 0.0 1029425
18:00−31зюз1295100 0.0 102919
21:00−36з019850 0.0 102919
2 марта, вт
вт200:00−38с11990 0.0 102819
03:00−39св111000 0.0 102819
06:00−40св111003 0.0 102818
09:00−40ссв1110010 0.0 102818
12:00−33св129231 0.0 1027235
15:00−29св238861 0.0 1027452
18:00−31св2295100 0.0 102743
21:00−37ссв229465 0.0 102919
3 марта, ср
ср300:00−38с229637 0.0 102918
03:00−40с129741 0.0 103018
06:00−40с129656 0.0 103018
09:00−39ссз129576 0.0 103119
12:00−34ссз129299 0.0 1031274
15:00−31сз228799 0.0 1030446
18:00−32сз229398 0.0 103021
21:00−37зсз119557 0.0 103119